Marrakech, Morocco

2:33 PM WET on February 12, 2016 (GMT +0000)
Menara

Weather History for GMMX - October, 2012

Change the Weather History Date:

Saturday, October 6, 2012

  Actual Average Record
Temperature  
Mean Temperature 80 °F -  
Max Temperature 94 °F 79 °F 95 °F (2011)
Min Temperature 65 °F 56 °F 59 °F (1996)
Cooling Degree Days 14    
Growing Degree Days 30 (Base 50)    
Moisture  
Dew Point 59 °F    
Average Humidity 51    
Maximum Humidity 83    
Minimum Humidity 21    
Precipitation  
Precipitation 0.00 in 0.04 in - ()
Sea Level Pressure  
Sea Level Pressure 30.10 in    
Wind  
Wind Speed 2 mph ()    
Max Wind Speed 14 mph    
Max Gust Speed -    
Visibility 6.1 miles    
Events      
Averages and records for this station are not official NWS values.
T = Trace of Precipitation, MM = Missing Value Source: Averaged Metar Reports

Daily Weather History Graph

Daily Weather History Graph

Search for Another Location

Airport or City:

Trip Planner

Search our weather history database for the weather conditions in past years. The results will help you decide how hot, cold, wet, or windy it might be!

Date:

Astronomy

Oct. 06, 2012 Rise Set
Actual Time 6:29 AM WET 6:10 PM WET
Civil Twilight 6:04 AM WET 6:34 PM WET
Nautical Twilight 5:36 AM WET 7:02 PM WET
Astronomical Twilight 5:08 AM WET 7:31 PM WET
Moon 10:30 PM WET (10/6) 11:56 AM WET (10/6)
Length of Visible Light 12h 29m
Length of Day
11h 41m
Waning Gibbous, 67% of the Moon is Illuminated
Oct 6
Waning Gibbous
Oct 8
Last Quarter
Oct 15
New
Oct 22
First Quarter
Oct 29
Full

Hourly Weather History & Observations

Time (WET) Temp. Heat Index Dew Point Humidity Pressure Visibility Wind Dir Wind Speed Gust Speed Precip Events Conditions
12:00 AM 71 °F - 59 °F 56% 30.06 in 6 mi Calm Calm - -   Partly Cloudy
12:00 AM 71.6 °F - 59.0 °F 64% 30.12 in 6.2 mi Calm Calm - N/A   Scattered Clouds
2:30 AM 68.0 °F - 60.8 °F 78% 30.09 in 6.2 mi Calm Calm - N/A   Scattered Clouds
3:00 AM 67 °F - 60 °F 72% 30.04 in 6 mi Calm Calm - -   Partly Cloudy
3:00 AM 68.0 °F - 60.8 °F 78% 30.09 in 6.2 mi Calm Calm - N/A   Scattered Clouds
3:30 AM 68.0 °F - 60.8 °F 78% 30.09 in 6.2 mi Calm Calm - N/A   Scattered Clouds
4:00 AM 68.0 °F - 60.8 °F 78% 30.09 in 6.2 mi Calm Calm - N/A   Scattered Clouds
4:30 AM 68.0 °F - 60.8 °F 78% 30.09 in 6.2 mi Calm Calm - N/A   Scattered Clouds
5:00 AM 68.0 °F - 60.8 °F 78% 30.09 in 6.2 mi Calm Calm - N/A   Scattered Clouds
5:30 AM 68.0 °F - 60.8 °F 78% 30.09 in 6.2 mi Calm Calm - N/A   Scattered Clouds
6:00 AM 66 °F - 60 °F 76% 30.06 in 6 mi Calm Calm - -   Partly Cloudy
6:00 AM 68.0 °F - 60.8 °F 78% 30.09 in 6.2 mi Calm Calm - N/A   Scattered Clouds
6:30 AM 66.2 °F - 60.8 °F 83% 30.09 in 6.2 mi Calm Calm - N/A   Scattered Clouds
7:00 AM 66.2 °F - 60.8 °F 83% 30.09 in 6.2 mi Calm Calm - N/A   Scattered Clouds
7:30 AM 69.8 °F - 60.8 °F 73% 30.09 in 6.2 mi Calm Calm - N/A   Scattered Clouds
8:00 AM 73.4 °F - 62.6 °F 69% 30.12 in 6.2 mi Calm Calm - N/A   Scattered Clouds
8:30 AM 77.0 °F - 62.6 °F 61% 30.12 in 5.6 mi Calm Calm - N/A   Scattered Clouds
9:00 AM 80 °F - 62 °F 44% 30.05 in 6 mi Calm Calm - -   Scattered Clouds
9:00 AM 78.8 °F - 62.6 °F 57% 30.12 in 6.2 mi Calm Calm - N/A   Scattered Clouds
9:30 AM 82.4 °F 82.9 °F 60.8 °F 48% 30.12 in 6.2 mi Calm Calm - N/A   Partly Cloudy
10:00 AM 84.2 °F 84.4 °F 60.8 °F 45% 30.12 in 6.2 mi Calm Calm - N/A   Partly Cloudy
10:30 AM 86.0 °F 86.1 °F 60.8 °F 43% 30.12 in 6.2 mi Calm Calm - N/A   Partly Cloudy
11:00 AM 86.0 °F 86.1 °F 60.8 °F 43% 30.12 in 6.2 mi Calm Calm - N/A   Partly Cloudy
11:30 AM 87.8 °F 87.6 °F 60.8 °F 40% 30.12 in 6.2 mi Variable 2.3 mph - N/A   Partly Cloudy
12:00 PM 90 °F - 59 °F 25% 30.01 in 6 mi North 3.5 mph - -   Scattered Clouds
12:00 PM 89.6 °F 89.5 °F 60.8 °F 38% 30.12 in 6.2 mi North 3.5 mph - N/A   Scattered Clouds
12:30 PM 91.4 °F 90.7 °F 59.0 °F 34% 30.12 in 6.2 mi Calm Calm - N/A   Scattered Clouds
1:00 PM 91.4 °F 90.7 °F 59.0 °F 34% 30.09 in 6.2 mi NNW 5.8 mph - N/A   Scattered Clouds
1:30 PM 93.2 °F 92.6 °F 59.0 °F 32% 30.09 in 6.2 mi NW 5.8 mph - N/A   Scattered Clouds
2:00 PM 93.2 °F 91.9 °F 57.2 °F 30% 30.09 in 6.2 mi NW 8.1 mph - N/A   Scattered Clouds
2:30 PM 93.2 °F 91.9 °F 57.2 °F 30% 30.09 in 6.2 mi NW 4.6 mph - N/A   Scattered Clouds
3:00 PM 94 °F - 58 °F 21% 29.98 in 6 mi West 6.9 mph - -   Scattered Clouds
3:00 PM 93.2 °F 91.9 °F 57.2 °F 30% 30.09 in 6.2 mi West 6.9 mph - N/A   Scattered Clouds
3:30 PM 93.2 °F 91.9 °F 57.2 °F 30% 30.09 in 6.2 mi WSW 10.4 mph - N/A   Scattered Clouds
4:00 PM 93.2 °F 91.9 °F 57.2 °F 30% 30.09 in 6.2 mi West 11.5 mph - N/A   Scattered Clouds
4:30 PM 93.2 °F 91.3 °F 55.4 °F 28% 30.09 in 6.2 mi WNW 12.7 mph - N/A   Scattered Clouds
5:00 PM 91.4 °F 89.9 °F 57.2 °F 31% 30.09 in 6.2 mi West 13.8 mph - N/A   Scattered Clouds
5:30 PM 91.4 °F 89.9 °F 57.2 °F 31% 30.12 in 6.2 mi West 11.5 mph - N/A   Scattered Clouds
6:00 PM 88 °F - 57 °F 24% 30.02 in 6 mi WSW 9.2 mph - -   Partly Cloudy
6:00 PM 87.8 °F 86.5 °F 57.2 °F 35% 30.12 in 6.2 mi WSW 9.2 mph - N/A   Scattered Clouds
6:30 PM 86.0 °F 84.9 °F 57.2 °F 37% 30.12 in 6.2 mi WSW 8.1 mph - N/A   Scattered Clouds
7:00 PM 82.4 °F 82.0 °F 57.2 °F 42% 30.12 in 6.2 mi West 3.5 mph - N/A   Scattered Clouds
7:30 PM 82.4 °F 82.0 °F 57.2 °F 42% 30.12 in 6.2 mi WSW 5.8 mph - N/A   Scattered Clouds
8:00 PM 80.6 °F 81.1 °F 59.0 °F 48% 30.15 in 6.2 mi West 4.6 mph - N/A   Scattered Clouds
8:30 PM 78.8 °F - 59.0 °F 51% 30.15 in 6.2 mi Calm Calm - N/A   Scattered Clouds
9:00 PM 77 °F - 58 °F 41% 30.09 in 6 mi Calm Calm - -   Scattered Clouds
9:00 PM 77.0 °F - 57.2 °F 50% 30.15 in 6.2 mi Calm Calm - N/A   Scattered Clouds
10:00 PM 77.0 °F - 59.0 °F 54% 30.15 in - Calm Calm - N/A   Clear
10:30 PM 78.8 °F - 59.0 °F 51% 30.15 in 4.3 mi Calm Calm - N/A   Unknown
11:00 PM 75.2 °F - 59.0 °F 57% 30.15 in 4.3 mi South 2.3 mph - N/A   Unknown
11:30 PM 73.4 °F - 59.0 °F 61% 30.12 in - Calm Calm - N/A   Clear